KLM101 EDDG-EDDG

Flight info

Callsign KLM101
Flight time 0h 4m
Altitude 8000
Route OSN9E OSN
Aircraft DA42/L-SBDGRY/S

Departure

Time 2026-04-28 17:29
Airport Münster Osnabrück Airport (EDDG)

Arrival

Time 2026-04-28 17:34
Airport Münster Osnabrück Airport (EDDG)
Time Latitude Longitude Altitude Speed Heading
2026-04-28 17:14 52.13158 7.68238 163 ft 0 kts 90°
2026-04-28 17:25 52.13170 7.68276 163 ft 11 kts 49°
2026-04-28 17:26 52.13232 7.68351 164 ft 10 kts 12°
2026-04-28 17:26 52.13292 7.68319 164 ft 12 kts 314°
2026-04-28 17:26 52.13339 7.68207 165 ft 12 kts 289°
2026-04-28 17:26 52.13339 7.68206 165 ft 13 kts 289°
2026-04-28 17:27 52.13352 7.68114 164 ft 16 kts 277°
2026-04-28 17:27 52.13344 7.67921 159 ft 23 kts 252°
2026-04-28 17:28 52.13282 7.67642 158 ft 29 kts 251°
2026-04-28 17:28 52.13263 7.67522 156 ft 48 kts 68°
2026-04-28 17:28 52.13415 7.68181 332 ft 69 kts 68°
2026-04-28 17:29 52.13574 7.68951 579 ft 72 kts 76°
2026-04-28 17:29 52.13840 7.69553 893 ft 74 kts 26°
2026-04-28 17:29 52.14366 7.69212 1128 ft 93 kts 336°
2026-04-28 17:30 52.15267 7.67493 1528 ft 111 kts 315°
2026-04-28 17:30 52.16000 7.65181 1886 ft 121 kts 282°
2026-04-28 17:30 52.15993 7.63824 1875 ft 121 kts 261°
2026-04-28 17:31 52.15666 7.62751 1774 ft 95 kts 203°
2026-04-28 17:31 52.14573 7.62572 1385 ft 75 kts 145°
2026-04-28 17:32 52.13638 7.63334 1075 ft 77 kts 131°
2026-04-28 17:32 52.13216 7.63842 915 ft 73 kts 124°
2026-04-28 17:32 52.12877 7.64367 845 ft 62 kts 106°
2026-04-28 17:32 52.12796 7.65109 631 ft 72 kts 84°
2026-04-28 17:33 52.12917 7.65914 450 ft 73 kts 73°
2026-04-28 17:33 52.13075 7.66709 309 ft 77 kts 71°
2026-04-28 17:33 52.13249 7.67484 175 ft 65 kts 70°
2026-04-28 17:33 52.13295 7.67703 163 ft 61 kts 68°
2026-04-28 17:34 52.13477 7.68469 162 ft 30 kts 66°
2026-04-28 17:34 52.13539 7.68788 161 ft 38 kts 76°
2026-04-28 17:34 52.13640 7.69291 165 ft 48 kts 68°
2026-04-28 17:34 52.13725 7.69740 163 ft 28 kts 73°
2026-04-28 17:35 52.13765 7.69987 159 ft 20 kts 105°
2026-04-28 17:35 52.13701 7.70033 158 ft 14 kts 173°
2026-04-28 17:35 52.13588 7.69917 160 ft 28 kts 256°
2026-04-28 17:35 52.13521 7.69580 162 ft 33 kts 251°
2026-04-28 17:36 52.13440 7.69206 160 ft 37 kts 253°
2026-04-28 17:36 52.13375 7.68831 161 ft 33 kts 245°
2026-04-28 17:36 52.13290 7.68491 164 ft 32 kts 250°
2026-04-28 17:36 52.13197 7.68312 164 ft 18 kts 180°
2026-04-28 17:37 52.13156 7.68247 163 ft 7 kts 289°
2026-04-28 17:37 52.13158 7.68233 163 ft 0 kts 266°